STARLINK-31124 (58674 NORAD) Tracking and Keplerian Element Data

This shows tracking and keplerian element data for the satellite.

Feedback or suggestion? Click here.




ElementValue
Catalog58674
NameSTARLINK-31124
Epoch Orbit338
Epoch Day12.91667824
Epoch Year2024
RAAN204.1071
Inclination42.9998
Eccentricity0.0001653
Argument of Perigee275.7226
Mean Anonmoly317.7188
Mean Motion15.74036272
Decay Rate-0.0164941
L11 58674U 23211H 24012.91667824 -.01649410 00000+0 -12647-1 0 9998
L22 58674 42.9998 204.1071 0001653 275.7226 317.7188 15.74036272 3380



Live tracking and technical data element details for STARLINK-31124 (NORAD 58674). STARLINK-31124 can be tracked NOW for your location showing map with azimuth and elevation plus other details from your city location.







IsCatalogInMostPopularTable: catalog: 58674, numindb: 20
Update: records affected: 1



GetName: 58674 STARLINK-31124

Hit Count: updated at: Wed, 17 Apr 2024 02:52:22 GMT